Location: Haliburton Scout Reserve
(45.0900°N, 78.3200°W)
Time: 03:12:13
(UTC-04:00)

PCSat - Pass Details

Date: 31 May 2022
Orbit: 784 x 795 km, 67.1° (Epoch: 24 June)

Event Time Altitude Azimuth Distance (km) Brightness Sun altitude
Rises 00:53:44 0° 331° (NNW) 3,305 13.9 -22.9°
Reaches altitude 10° 00:56:18 10° 339° (NNW) 2,372 13.0 -22.9°
Maximum altitude 01:01:27 42° 50° (NE) 1,133 10.6 -23.0°
Enters shadow 01:04:39 21° 109° (ESE) 1,721 11.1 -23.0°
